Weather History for Mt. Clemens, MI

Change the Weather History Date:

Tuesday, October 1, 2013

  Actual Average Record
Temperature  
Mean Temperature 62 °F -  
Max Temperature 74 °F 65 °F 86 °F (1952)
Min Temperature 51 °F 47 °F 35 °F (1960)
Degree Days  
Heating Degree Days 2    
Growing Degree Days 12 (Base 50)    
Moisture  
Dew Point 56 °F    
Average Humidity 92    
Maximum Humidity 100    
Minimum Humidity 66    
Precipitation  
Precipitation 0.01 in - - ()
Sea Level Pressure  
Sea Level Pressure 29.97 in    
Wind  
Wind Speed 4 mph (WSW)    
Max Wind Speed 16 mph    
Max Gust Speed 22 mph    
Visibility 5 miles    
Events Fog    
Averages and records for this station are not official NWS values.
T = Trace of Precipitation, MM = Missing Value Source: NWS Daily Summary

Daily Weather History Graph

Daily Weather History Graph

Search for Another Location

Airport:

Trip Planner

Search our weather history database for the weather conditions in past years. The results will help you decide how hot, cold, wet, or windy it might be!

Date:

Astronomy

Oct. 01, 2013 Rise Set
Actual Time 7:28 AM EDT 7:12 PM EDT
Civil Twilight 7:00 AM EDT 7:40 PM EDT
Nautical Twilight 6:27 AM EDT 8:13 PM EDT
Astronomical Twilight 5:54 AM EDT 8:46 PM EDT
Moon 3:58 AM EDT (10/1) 5:18 PM EDT (10/1)
Length of Visible Light 12h 39m
Length of Day
11h 43m
Waning Crescent, 12% of the Moon is Illuminated
Oct 1
Waning Crescent
Oct 4
New
Oct 11
First Quarter
Oct 18
Full
Oct 26
Last Quarter

Hourly Weather History & Observations

Time (EDT) Temp. Dew Point Humidity Pressure Visibility Wind Dir Wind Speed Gust Speed Precip Events Conditions
12:43 AM 55.4 °F 55.4 °F 100% 29.95 in 8.0 mi Calm Calm - N/A   Clear
12:58 AM 55.2 °F 54.9 °F 99% 29.96 in 8.0 mi Calm Calm - N/A   Clear
1:23 AM 53.6 °F 53.6 °F 100% 29.95 in 6.0 mi Calm Calm - N/A   Clear
1:28 AM 53.6 °F 53.6 °F 100% 29.95 in 4.0 mi West 1.2 mph - N/A   Clear
1:43 AM 53.6 °F 53.6 °F 100% 29.95 in 5.0 mi West 2.3 mph - N/A   Clear
1:53 AM 53.6 °F 53.6 °F 100% 29.95 in 7.0 mi WSW 2.3 mph - N/A   Clear
1:58 AM 54.0 °F 53.6 °F 99% 29.96 in 8.0 mi WSW 2.3 mph - N/A   Clear
2:13 AM 53.6 °F 53.6 °F 100% 29.96 in 6.0 mi WSW 2.3 mph - N/A   Clear
2:28 AM 53.6 °F 53.6 °F 100% 29.96 in 5.0 mi WSW 2.3 mph - N/A   Clear
2:43 AM 53.6 °F 53.6 °F 100% 29.95 in 0.8 mi Calm Calm - N/A   Clear
2:48 AM 53.6 °F 53.6 °F 100% 29.96 in 0.5 mi WNW 1.2 mph - N/A Fog Fog
2:53 AM 53.6 °F 53.6 °F 100% 29.96 in 0.8 mi Calm Calm - N/A   Clear
2:58 AM 53.6 °F 53.6 °F 100% 29.97 in 1.8 mi WNW 2.3 mph - N/A   Clear
3:01 AM 53.6 °F 51.8 °F 94% 29.96 in 4.0 mi West 2.3 mph - N/A   Partly Cloudy
3:06 AM 53.6 °F 51.8 °F 94% 29.96 in 4.0 mi WNW 3.5 mph - N/A   Scattered Clouds
3:11 AM 53.6 °F 53.6 °F 100% 29.96 in 3.0 mi WNW 3.5 mph - N/A   Mostly Cloudy
3:21 AM 53.6 °F 53.6 °F 100% 29.96 in 5.0 mi West 2.3 mph - N/A   Mostly Cloudy
3:26 AM 55.4 °F 53.6 °F 94% 29.96 in 6.0 mi WNW 2.3 mph - N/A   Overcast
3:36 AM 57.2 °F 57.2 °F 100% 29.96 in 1.5 mi SW 5.8 mph - N/A   Overcast
3:41 AM 57.2 °F 57.2 °F 100% 29.96 in 0.8 mi WSW 4.6 mph - N/A   Mist
3:46 AM 59.0 °F 57.2 °F 94% 29.96 in 0.5 mi SW 4.6 mph - N/A Fog Fog
3:58 AM 58.3 °F 57.9 °F 99% 29.97 in 0.5 mi WSW 3.5 mph - N/A Fog Fog
4:13 AM 57.2 °F 57.2 °F 100% 29.97 in 0.5 mi WNW 2.3 mph - N/A Fog Fog
4:23 AM 57.2 °F 57.2 °F 100% 29.97 in 0.8 mi WSW 4.6 mph - N/A   Mist
4:28 AM 57.2 °F 55.4 °F 94% 29.97 in 3.0 mi WSW 5.8 mph - N/A   Clear
4:29 AM 55.4 °F 55.4 °F 100% 29.97 in 3.0 mi WSW 5.8 mph - N/A   Partly Cloudy
4:34 AM 57.2 °F 55.4 °F 94% 29.97 in 1.8 mi WSW 4.6 mph - N/A   Partly Cloudy
4:39 AM 57.2 °F 55.4 °F 94% 29.97 in 0.8 mi West 3.5 mph - N/A   Mist
4:44 AM 55.4 °F 55.4 °F 100% 29.97 in 0.8 mi West 3.5 mph - N/A   Mist
4:49 AM 55.4 °F 55.4 °F 100% 29.97 in 0.5 mi West 2.3 mph - N/A Fog Fog
4:58 AM 55.9 °F 55.6 °F 99% 29.98 in 0.5 mi WSW 3.5 mph - N/A Fog Fog
5:58 AM 54.1 °F 54.0 °F 99% 29.99 in 0.2 mi Calm Calm - 0.01 in Fog Fog
6:03 AM 53.6 °F 53.6 °F 100% 29.98 in 0.2 mi WNW 1.2 mph - N/A Fog Fog
6:58 AM 51.1 °F 50.9 °F 99% 30.00 in 0.5 mi Calm Calm - N/A Fog Fog
7:21 AM 51.8 °F 50.0 °F 94% 29.99 in 1.5 mi SSE 3.5 mph - N/A Fog Shallow Fog
7:45 AM 51.8 °F 51.8 °F 100% 29.99 in 3.0 mi Calm Calm - N/A Fog Shallow Fog
7:55 AM 52.2 °F 52.2 °F 100% 30.02 in 4.0 mi SSW 3.5 mph - N/A   Partly Cloudy
8:55 AM 58.6 °F 58.6 °F 100% 30.02 in 6.0 mi SSW 4.6 mph - N/A   Partly Cloudy
9:55 AM 64.6 °F 64.6 °F 100% 30.01 in 7.0 mi SW 6.9 mph - N/A   Clear
10:55 AM 70.9 °F 62.1 °F 74% 30.01 in 10.0 mi SW 6.9 mph - N/A   Clear
11:55 AM 73.0 °F 61.7 °F 67% 30.01 in 10.0 mi SSW 10.4 mph - N/A   Partly Cloudy
12:55 PM 74.5 °F 62.6 °F 66% 30.00 in 10.0 mi WSW 11.5 mph - N/A   Partly Cloudy
1:55 PM 70.5 °F 60.4 °F 70% 29.99 in 10.0 mi SW 13.8 mph - N/A   Partly Cloudy
2:34 PM 69.8 °F 60.8 °F 73% 29.95 in 10.0 mi SSW 16.1 mph 21.9 mph N/A   Mostly Cloudy
2:55 PM 68.9 °F 60.8 °F 75% 29.98 in 10.0 mi SW 13.8 mph - N/A   Mostly Cloudy
3:19 PM 68.0 °F 60.8 °F 78% 29.95 in 10.0 mi SW 15.0 mph - N/A   Mostly Cloudy
3:55 PM 69.6 °F 61.0 °F 74% 29.97 in 10.0 mi SW 12.7 mph 20.7 mph N/A   Mostly Cloudy
4:55 PM 71.4 °F 61.3 °F 70% 29.95 in 10.0 mi SW 13.8 mph - N/A   Mostly Cloudy
5:01 PM 71.6 °F 60.8 °F 69% 29.92 in 10.0 mi SW 12.7 mph - N/A   Scattered Clouds
5:55 PM 70.9 °F 60.8 °F 70% 29.95 in 10.0 mi WSW 15.0 mph - N/A   Partly Cloudy
6:55 PM 67.6 °F 59.0 °F 74% 29.96 in 10.0 mi WSW 12.7 mph 20.7 mph N/A   Partly Cloudy
7:55 PM 64.9 °F 59.5 °F 83% 29.95 in 10.0 mi SSW 8.1 mph - N/A   Partly Cloudy
8:58 PM 64.8 °F 59.7 °F 84% 29.95 in 10.0 mi SW 8.1 mph - N/A   Clear
9:58 PM 64.4 °F 60.1 °F 86% 29.95 in 10.0 mi SW 6.9 mph - N/A   Clear
10:58 PM 64.2 °F 60.1 °F 86% 29.95 in 10.0 mi SW 6.9 mph - N/A   Clear
11:58 PM 64.2 °F 60.1 °F 86% 29.95 in 10.0 mi SW 9.2 mph - N/A   Clear